Weather History for KAOO - November, 2013

Change the Weather History Date:

Thursday, November 7, 2013

  Actual Average Record
Temperature  
Mean Temperature 49 °F 45 °F  
Max Temperature 60 °F 54 °F 71 °F (2008)
Min Temperature 37 °F 36 °F 22 °F (1954)
Degree Days  
Heating Degree Days 16 20  
Month to date heating degree days 132 135  
Since 1 July heating degree days 639 742  
Cooling Degree Days 0 0  
Month to date cooling degree days 0 0  
Year to date cooling degree days 695 522  
Moisture  
Dew Point 40 °F    
Average Humidity 72    
Maximum Humidity 93    
Minimum Humidity 50    
Precipitation  
Precipitation 0.16 in 0.11 in 5.03 in (1997)
Month to date precipitation 0.39 0.74  
Year to date precipitation 25.37 27.72  
Sea Level Pressure  
Sea Level Pressure 29.97 in    
Wind  
Wind Speed 12 mph (WNW)    
Max Wind Speed 25 mph    
Max Gust Speed 33 mph    
Visibility 10 miles    
Events Rain    
T = Trace of Precipitation, MM = Missing Value Source: NWS Daily Summary

Daily Weather History Graph

Daily Weather History Graph

Search for Another Location

Airport or City:

Trip Planner

Search our weather history database for the weather conditions in past years. The results will help you decide how hot, cold, wet, or windy it might be!

Date:

Astronomy

Nov. 07, 2013 Rise Set
Actual Time 6:50 AM EST 5:03 PM EST
Civil Twilight 6:21 AM EST 5:31 PM EST
Nautical Twilight 5:48 AM EST 6:04 PM EST
Astronomical Twilight 5:17 AM EST 6:36 PM EST
Moon 10:57 AM EST (11/7) 9:12 PM EST (11/7)
Length of Visible Light 11h 10m
Length of Day
10h 13m
Waxing Crescent, 22% of the Moon is Illuminated
Nov 7
Waxing Crescent
Nov 10
First Quarter
Nov 17
Full
Nov 25
Last Quarter
Dec 2
New

Hourly Weather History & Observations

Time (EST) Temp. Windchill Dew Point Humidity Pressure Visibility Wind Dir Wind Speed Gust Speed Precip Events Conditions
12:53 AM 60.1 °F - 46.9 °F 62% 29.93 in 10.0 mi SSW 15.0 mph - N/A   Overcast
1:53 AM 59.0 °F - 48.0 °F 67% 29.91 in 10.0 mi SSW 13.8 mph - N/A   Overcast
2:53 AM 57.9 °F - 48.0 °F 70% 29.89 in 10.0 mi SW 11.5 mph - N/A   Overcast
3:53 AM 55.9 °F - 50.0 °F 80% 29.87 in 10.0 mi SW 8.1 mph - 0.00 in   Overcast
4:53 AM 54.0 °F - 52.0 °F 93% 29.87 in 7.0 mi SSW 5.8 mph - 0.03 in Rain Light Rain
5:35 AM 54.0 °F - 52.0 °F 93% 29.88 in 6.0 mi SW 6.9 mph - 0.02 in Rain Light Rain
5:53 AM 53.1 °F - 52.0 °F 96% 29.88 in 5.0 mi Calm Calm - 0.04 in Rain Light Rain
6:09 AM 53.1 °F - 52.0 °F 96% 29.87 in 10.0 mi SW 5.8 mph - 0.01 in Rain Light Rain
6:53 AM 53.1 °F - 48.9 °F 86% 29.90 in 6.0 mi NW 15.0 mph 23.0 mph 0.06 in Rain Rain
7:19 AM 52.0 °F - 48.0 °F 86% 29.91 in 10.0 mi NW 11.5 mph - 0.01 in Rain Light Rain
7:53 AM 51.1 °F - 45.0 °F 80% 29.91 in 10.0 mi WNW 12.7 mph - 0.02 in   Overcast
8:53 AM 50.0 °F - 45.0 °F 83% 29.93 in 10.0 mi WNW 9.2 mph - 0.00 in   Overcast
9:12 AM 50.0 °F - 45.0 °F 83% 29.94 in 10.0 mi WNW 10.4 mph - N/A   Overcast
9:53 AM 50.0 °F - 45.0 °F 83% 29.95 in 10.0 mi WNW 10.4 mph - 0.00 in Rain Light Rain
10:25 AM 46.9 °F - 43.0 °F 86% 29.96 in 10.0 mi NW 16.1 mph - 0.00 in Rain Light Rain
10:53 AM 46.0 °F 39.9 °F 42.1 °F 86% 29.98 in 10.0 mi NW 13.8 mph - 0.00 in   Overcast
11:01 AM 46.0 °F 39.3 °F 41.0 °F 83% 29.97 in 10.0 mi WNW 16.1 mph 26.5 mph N/A   Overcast
11:53 AM 46.0 °F 40.2 °F 41.0 °F 83% 29.98 in 10.0 mi NW 12.7 mph 23.0 mph N/A   Overcast
12:26 PM 46.9 °F - 39.0 °F 74% 29.97 in 10.0 mi NW 15.0 mph 23.0 mph N/A   Overcast
12:37 PM 46.0 °F 39.6 °F 37.9 °F 73% 29.97 in 10.0 mi NW 15.0 mph 24.2 mph N/A   Overcast
12:53 PM 46.9 °F - 37.9 °F 71% 29.98 in 10.0 mi NNW 10.4 mph - N/A   Overcast
1:02 PM 46.9 °F - 37.9 °F 71% 29.97 in 10.0 mi NNW 10.4 mph - N/A   Overcast
1:53 PM 46.0 °F 39.3 °F 37.0 °F 71% 29.97 in 10.0 mi WNW 16.1 mph 21.9 mph 0.00 in Rain Light Rain
2:53 PM 48.0 °F - 35.1 °F 61% 29.97 in 10.0 mi WNW 13.8 mph 21.9 mph 0.00 in   Overcast
3:53 PM 45.0 °F 38.5 °F 35.1 °F 68% 29.99 in 10.0 mi NW 13.8 mph 25.3 mph 0.00 in Rain Light Rain
4:27 PM 43.0 °F 35.7 °F 37.0 °F 80% 29.98 in 9.0 mi WNW 15.0 mph 23.0 mph 0.00 in Rain Light Rain
4:40 PM 43.0 °F 35.4 °F 34.0 °F 71% 29.99 in 10.0 mi WNW 16.1 mph 24.2 mph 0.00 in   Overcast
4:53 PM 43.0 °F 36.4 °F 33.1 °F 68% 30.01 in 10.0 mi WNW 12.7 mph 24.2 mph 0.00 in   Mostly Cloudy
5:34 PM 41.0 °F 33.9 °F 36.0 °F 82% 30.00 in 10.0 mi WNW 12.7 mph 25.3 mph 0.00 in Rain Light Rain
5:53 PM 41.0 °F 33.5 °F 35.1 °F 79% 30.04 in 10.0 mi WNW 13.8 mph 23.0 mph 0.00 in   Overcast
6:53 PM 39.9 °F 30.2 °F 30.0 °F 68% 30.06 in 10.0 mi NW 20.7 mph 33.4 mph 0.01 in   Overcast
7:53 PM 39.0 °F 30.6 °F 26.1 °F 60% 30.11 in 10.0 mi WNW 15.0 mph 26.5 mph N/A   Overcast
8:53 PM 39.0 °F 30.3 °F 23.0 °F 53% 30.09 in 10.0 mi WNW 16.1 mph 23.0 mph N/A   Overcast
9:53 PM 37.0 °F 30.4 °F 25.0 °F 62% 30.09 in 10.0 mi WNW 9.2 mph - N/A   Scattered Clouds
10:53 PM 37.0 °F 30.4 °F 26.1 °F 65% 30.08 in 10.0 mi WNW 9.2 mph - N/A   Mostly Cloudy
11:53 PM 37.9 °F 33.5 °F 28.0 °F 68% 30.09 in 10.0 mi West 5.8 mph - N/A   Overcast